"Pseudo-MPEC" for P216kAB

Created 2020 Sep 17 0:07:51 UT using Find_Orb

Click here for an explanation of pseudo-MPECs

 
 Astrometry: 
     P216kAB  C2020 09 10.27941 23 11 44.05 +04 45 04.8    ~9GNb 21.7 GVNEOCPG96
     P216kAB  C2020 09 10.28460 23 11 43.73 +04 44 50.6    ~9GNb 21.5 GVNEOCPG96
     P216kAB  C2020 09 10.29496 23 11 43.14 +04 44 19.5    ~9GNb       VNEOCPG96
     P216kAB  C2020 09 16A\4'5`_3f5gEGWO:V3)^N==`JXe5R1h,l#mQkY@XXAstrometrygF52
     P216kAB  C2020 09 16j-[p=Hy!Ppr6APV0(tAK3Nsd?,^RdKBK`lh.redacted;Ei^aO7kF52
     P216kAB  C2020 09 16+Gt%iy_M3AG?%y^+u/EgxT2Al(]A?Ng_0!E2)X-*Qg]5LXyqyQKeF52
     P216kAB hC2020 09 16rrn/m3^tT:Ydp$QS68]h%@WQRVIQ-NpZFdC:R[h,vGqFyp:\^@VpL01
     P216kAB hC2020 09 16K.N9h#/H#tEqL'92#a]#A_7^Pt:yHNan+ppbD4JclickCM]4hereL01
     P216kAB hC2020 09 16@#/Z%!Zc+.Wfor+-Ye5tZ@DP]ilqexplanation9iDPi3qlBQKweL01

Station data:
(F52) Pan-STARRS 2, Haleakala  (N20.707384 W156.255910)  US/Hawaii. 1.8-m
   Ritchey-Chrétien + CCD.
(G96) Mt. Lemmon Survey  (N32.442754 W110.788720)  US/Arizona.  Observers T.
   A. Pruyne, B. M. Africano, E. J. Christensen, G. A. Farneth, D. C. Fuls,
   A. R. Gibbs, A. D. Grauer, H. Gröller, J. A. Johnson, R. A. Kowalski, S.
   M. Larson, G. J. Leonard, D. Rankin, R. L. Seaman, F. C. Shelly. 1.5-m
   reflector + 10K CCD.
(L01) Višnjan Observatory, Tičan  (N45.290900 E13.749300)  Croatia.
   Observers K. Korlević, E. Pettarin. Measurer E. Pettarin. 1.0-m f/2.9
   reflector + CCD.

Orbital elements:  P216kAB
   Perihelion 2020 Nov 27.226352 +/- 0.337 TT =  5:25:56 (JD 2459180.726352)
Epoch 2020 Sep 16.0 TT = JDT 2459108.5   Earth MOID: 0.0532   AutoNEOCP
M 316.07489583 +/- 1.0              (J2000 ecliptic)
n   0.60815897 +/- 0.011            Peri.  266.26989 +/- 0.06
a   1.37972108 +/- 0.0166           Node   175.11534 +/- 0.023
e   0.4058773 +/- 0.00912           Incl.   11.08888 +/- 0.24
P   1.62/591.94d           H 24.7   G  0.15   U  9.7  
q 0.81972352 +/- 0.00269    Q 1.93971864 +/- 0.0355
From 9 observations 2020 Sept. 10-16; mean residual 0".21
Residuals in arcseconds: 
200910 G96  .24+  .35-    200916 F52  .09-  .13-    200916 L01  .12+  .05-    
200910 G96  .13-  .59+    200916 F52  .13+  .27+    200916 L01  .18-  .02-    
200910 G96  .11-  .24-    200916 F52  .02-  .14-    200916 L01  .04+  .07+    

Ephemerides (geocentric):
Date (UTC) HH   RA              Dec         delta   r     elong  mag " sig PA
---- -- -- --  -------------   -----------  ------ ------ -----  --- ---- ---
2020 09 17 00  23 06 04.585   -02 37 29.81  .13263 1.1366 171.8 21.1 1.03   6
2020 09 17 01  23 06 01.945   -02 41 08.21  .13238 1.1363 171.7 21.1 1.07   6
2020 09 17 02  23 05 59.297   -02 44 47.42  .13214 1.1360 171.7 21.1 1.12   7
2020 09 17 03  23 05 56.642   -02 48 27.45  .13189 1.1358 171.6 21.1 1.17   8
2020 09 17 04  23 05 53.979   -02 52 08.29  .13165 1.1355 171.6 21.1 1.22   8
2020 09 17 05  23 05 51.307   -02 55 49.96  .13140 1.1352 171.5 21.1 1.27   9
2020 09 17 06  23 05 48.628   -02 59 32.45  .13116 1.1349 171.4 21.1 1.32   9
2020 09 17 07  23 05 45.942   -03 03 15.77  .13091 1.1347 171.4 21.1 1.37  10
2020 09 17 08  23 05 43.247   -03 06 59.92  .13067 1.1344 171.3 21.1 1.42  10
2020 09 17 09  23 05 40.544   -03 10 44.91  .13042 1.1341 171.3 21.1 1.48  11
2020 09 17 10  23 05 37.834   -03 14 30.74  .13018 1.1339 171.2 21.1 1.53  11
2020 09 17 11  23 05 35.115   -03 18 17.41  .12994 1.1336 171.2 21.1 1.59  12
2020 09 17 12  23 05 32.388   -03 22 04.93  .12969 1.1333 171.1 21.1 1.65  12
2020 09 17 13  23 05 29.654   -03 25 53.29  .12945 1.1330 171.0 21.1 1.71  12
2020 09 17 14  23 05 26.911   -03 29 42.51  .12921 1.1328 171.0 21.1 1.77  13
2020 09 17 15  23 05 24.161   -03 33 32.59  .12896 1.1325 170.9 21.1 1.83  13
2020 09 17 16  23 05 21.402   -03 37 23.52  .12872 1.1322 170.9 21.1 1.90  13
2020 09 17 17  23 05 18.635   -03 41 15.32  .12848 1.1320 170.8 21.1 1.96  14
2020 09 17 18  23 05 15.860   -03 45 07.98  .12824 1.1317 170.7 21.1 2.03  14
2020 09 17 19  23 05 13.076   -03 49 01.52  .12800 1.1314 170.7 21.1 2.10  14
2020 09 17 20  23 05 10.285   -03 52 55.93  .12776 1.1312 170.6 21.1 2.17  14
2020 09 17 21  23 05 07.485   -03 56 51.21  .12752 1.1309 170.5 21.1 2.24  15
2020 09 17 22  23 05 04.677   -04 00 47.38  .12727 1.1306 170.5 21.1 2.31  15
2020 09 17 23  23 05 01.860   -04 04 44.43  .12703 1.1303 170.4 21.1 2.39  15
2020 09 18 00  23 04 59.035   -04 08 42.37  .12679 1.1301 170.3 21.1 2.46  15
2020 09 18 01  23 04 56.202   -04 12 41.21  .12655 1.1298 170.3 21.1 2.54  15
2020 09 18 02  23 04 53.361   -04 16 40.93  .12632 1.1295 170.2 21.1 2.62  16
2020 09 18 03  23 04 50.511   -04 20 41.56  .12608 1.1293 170.1 21.1 2.70  16
2020 09 18 04  23 04 47.652   -04 24 43.09  .12584 1.1290 170.1 21.1 2.78  16
2020 09 18 05  23 04 44.785   -04 28 45.53  .12560 1.1287 170.0 21.1 2.86  16
2020 09 18 06  23 04 41.909   -04 32 48.87  .12536 1.1284 169.9 21.1 2.94  16
2020 09 18 07  23 04 39.025   -04 36 53.13  .12512 1.1282 169.9 21.1 3.03  16
2020 09 18 08  23 04 36.132   -04 40 58.31  .12488 1.1279 169.8 21.1 3.12  17
2020 09 18 09  23 04 33.231   -04 45 04.41  .12465 1.1276 169.7 21.1 3.21  17
2020 09 18 10  23 04 30.321   -04 49 11.43  .12441 1.1274 169.6 21.1 3.30  17
2020 09 18 11  23 04 27.402   -04 53 19.39  .12417 1.1271 169.6 21.1 3.39  17
2020 09 18 12  23 04 24.474   -04 57 28.27  .12394 1.1268 169.5 21.1 3.48  17
2020 09 18 13  23 04 21.538   -05 01 38.09  .12370 1.1266 169.4 21.1 3.58  17
2020 09 18 14  23 04 18.593   -05 05 48.86  .12346 1.1263 169.4 21.1 3.68  17
2020 09 18 15  23 04 15.639   -05 10 00.56  .12323 1.1260 169.3 21.1 3.78  17
2020 09 18 16  23 04 12.676   -05 14 13.22  .12299 1.1257 169.2 21.1 3.88  17
2020 09 18 17  23 04 09.704   -05 18 26.83  .12276 1.1255 169.1 21.1 3.98  18
2020 09 18 18  23 04 06.723   -05 22 41.39  .12252 1.1252 169.1 21.1 4.08  18
2020 09 18 19  23 04 03.733   -05 26 56.91  .12229 1.1249 169.0 21.1 4.19  18
2020 09 18 20  23 04 00.734   -05 31 13.40  .12205 1.1247 168.9 21.1 4.30  18
2020 09 18 21  23 03 57.726   -05 35 30.85  .12182 1.1244 168.8 21.0 4.41  18
2020 09 18 22  23 03 54.709   -05 39 49.28  .12159 1.1241 168.7 21.0 4.52  18
2020 09 18 23  23 03 51.683   -05 44 08.68  .12135 1.1238 168.7 21.0 4.63  18